Theta_e
322 322 323 325 327 325 324 323 327 328 329 328 328 327 328 329 332 332 331 330 330 332 334 334 336 337 335 332 330 331 331 331 331 333 332 331 330 330 330 330 329 328 327
322 320 319 320 322 324 324 324 322 322 327 326 327 326 326 328 329 331 331 329 331 331 332 334 335 332 337 332 330 331 331 332 333 332 330 330 329 328 328 327 326 326 326
320 320 318 318 319 319 324 324 322 322 320 321 320 326 327 327 327 328 330 329 330 332 332 335 334 334 337 335 331 330 330 330 331 330 328 327 327 327 325 324 324 324 324
319 317 316 316 318 321 322 321 319 317 317 319 317 320 324 327 327 327 327 328 328 328 330 334 334 334 337 336 335 330 329 329 329 328 327 327 326 323 322 322 322 322 322
316 316 315 316 317 320 322 322 320 320 318 318 316 317 319 322 325 327 327 327 328 328 328 332 335 335 336 336 335 331 329 328 328 328 327 325 323 321 321 322 322 323 323
317 317 315 316 317 321 319 319 319 320 319 318 317 316 316 318 322 322 324 327 328 329 330 330 329 331 334 334 334 332 330 328 327 327 325 323 321 321 321 321 321 321 321
318 318 316 316 316 317 318 318 318 317 316 318 315 314 316 317 321 319 322 322 325 327 328 328 328 327 329 333 332 330 330 327 327 326 324 323 321 320 319 319 320 319 319
319 316 317 316 317 316 316 317 318 315 316 319 314 312 309 312 318 320 322 321 321 325 326 328 326 327 327 326 325 329 329 327 327 326 324 321 319 318 318 318 318 317 317
319 319 318 318 318 318 315 317 317 316 313 316 317 313 309 306 312 318 319 321 322 323 325 325 325 324 323 322 324 326 328 327 326 325 323 320 319 318 318 318 316 315 315
319 318 319 318 318 319 317 317 318 317 316 312 316 318 316 315 308 307 317 320 320 320 322 323 323 323 322 321 326 327 329 326 325 323 321 320 319 318 318 318 315 314 313
320 318 318 318 318 318 318 318 318 319 316 315 314 314 315 316 315 309 307 312 318 319 322 322 321 322 322 323 322 324 326 325 323 321 319 318 318 318 318 316 314 312 311
319 319 319 318 319 318 317 317 319 318 316 316 317 316 314 313 312 311 308 311 312 316 319 319 318 321 322 323 326 326 324 323 320 318 318 319 318 317 317 316 314 311 312
315 319 319 318 318 318 318 318 319 317 317 316 316 316 316 316 317 315 313 311 310 314 316 316 318 321 322 323 323 324 323 322 320 318 317 317 317 317 317 316 313 312 313
317 321 319 319 319 319 319 318 318 318 318 316 316 318 317 317 317 316 313 311 308 310 313 310 318 320 321 322 322 324 319 322 320 319 318 316 316 317 316 315 313 314 314
317 316 319 319 320 320 319 319 317 316 316 315 316 317 317 318 316 318 315 312 309 305 306 313 313 317 318 320 320 317 318 322 321 319 318 316 316 316 315 315 315 314 314
320 318 317 318 319 320 319 318 318 316 316 316 318 316 317 318 315 316 317 315 312 310 307 314 314 317 317 317 316 315 318 322 321 320 318 317 316 316 316 316 317 316 316
319 317 316 315 317 319 320 318 318 316 317 317 318 317 317 319 317 318 318 316 313 311 308 313 315 317 315 315 313 317 318 317 317 320 319 317 316 315 316 316 316 317 317
318 317 317 317 316 318 318 317 315 317 317 316 317 317 317 317 317 317 317 317 316 317 314 309 314 314 315 317 316 316 319 318 317 320 319 317 316 314 315 315 315 315 315
317 317 316 315 315 314 316 318 317 316 316 318 316 317 317 317 316 316 317 316 316 317 314 312 310 314 316 317 315 318 317 318 320 323 318 317 315 315 314 313 313 313 312
318 315 317 316 316 315 315 316 317 316 315 317 319 318 317 316 316 315 316 316 316 315 315 312 311 311 314 315 314 312 313 315 314 316 317 316 315 314 314 313 314 314 312
317 317 318 318 318 313 309 311 314 316 315 317 316 315 316 315 313 311 313 314 316 315 314 314 312 312 311 312 310 312 311 310 312 315 313 315 314 312 313 314 315 316 314
319 316 316 318 315 309 304 305 308 317 318 318 316 316 318 316 315 315 313 312 311 312 313 313 312 312 311 312 313 313 312 310 307 316 311 310 313 313 314 315 315 314 312
320 320 319 318 317 313 301 301 304 313 317 315 318 313 313 316 319 317 314 312 311 310 310 312 313 313 312 314 313 312 311 311 311 315 314 309 313 311 315 313 311 311 309
321 320 320 318 317 308 300 299 301 311 320 316 316 318 316 317 310 311 313 314 317 318 315 314 317 313 310 311 310 310 311 312 315 316 315 306 312 311 314 311 308 308 307
322 320 316 316 317 315 300 300 301 313 316 317 318 320 318 317 301 302 314 316 316 316 314 311 308 305 302 302 304 308 309 306 304 310 314 311 310 309 312 308 305 306 305
318 319 315 316 313 318 301 300 301 309 311 314 319 311 304 309 300 301 313 314 310 310 310 313 315 308 305 309 307 312 311 303 303 303 309 306 308 308 305 310 305 305 302
Wind_Speed
7 8 9 9 7 3 2 4 3 4 5 5 5 5 4 4 3 3 2 3 5 5 7 1 1 7 10 9 8 8 8 8 8 10 10 9 8 8 8 8 8 8 8
7 7 8 9 9 4 5 6 6 4 4 6 7 8 7 6 6 6 4 5 9 10 8 11 11 3 12 7 7 8 8 10 10 10 10 9 8 7 7 7 6 6 7
7 6 7 8 6 7 6 5 6 5 5 7 9 10 9 8 7 7 5 4 5 14 14 17 14 11 13 13 9 8 9 9 10 10 8 9 8 6 5 4 5 5 5
7 9 6 7 7 5 6 6 4 5 6 5 6 9 5 8 9 9 8 8 8 7 13 22 17 17 20 17 16 11 9 10 10 10 9 9 8 5 3 3 3 4 4
9 7 8 8 6 7 5 5 5 6 5 5 7 7 6 4 9 10 11 11 11 10 8 14 22 20 21 19 16 13 11 10 11 11 10 8 6 5 1 3 4 5 5
7 6 7 8 8 4 6 6 6 5 6 6 8 7 8 8 5 5 8 9 10 12 9 8 6 11 19 17 18 18 15 12 12 12 9 8 5 2 1 3 3 4 4
6 7 6 7 6 5 6 6 5 6 6 6 5 6 9 7 7 6 6 5 8 9 9 7 5 4 8 20 21 17 17 14 13 11 9 7 4 1 2 2 2 3 4
7 8 8 8 6 6 7 5 4 5 5 4 2 4 4 4 3 7 5 4 6 5 7 7 8 8 7 6 8 16 16 14 13 11 8 5 2 1 3 1 2 3 5
8 8 7 7 7 6 6 5 5 6 6 6 6 4 3 4 3 1 1 2 5 2 3 5 9 8 5 5 8 11 14 13 12 10 7 5 3 4 4 3 2 3 4
7 7 8 7 6 4 6 5 5 5 5 5 3 5 8 4 2 3 2 2 1 3 6 4 7 9 9 5 11 12 13 12 10 9 7 6 5 4 4 4 1 1 3
4 7 7 6 7 4 5 5 5 5 5 3 4 3 4 4 5 3 4 3 4 5 4 4 4 4 8 5 6 8 13 10 9 7 6 6 5 5 5 4 2 2 1
3 5 7 7 7 6 6 6 6 6 6 0 4 4 3 2 1 3 2 2 5 3 4 5 5 1 4 6 10 16 13 9 8 7 6 8 7 6 6 6 4 2 2
5 5 6 6 6 6 7 6 3 4 4 3 3 3 3 2 2 2 3 3 4 3 3 2 3 5 4 4 8 14 15 13 11 9 8 6 8 8 7 6 5 5 4
4 4 6 6 6 6 4 6 4 4 4 4 5 4 4 4 3 3 3 5 4 4 3 3 3 4 6 6 8 15 7 10 9 9 10 11 11 9 8 7 6 6 5
6 5 6 5 5 5 6 5 4 6 5 4 4 4 3 4 3 5 5 5 2 1 1 6 3 5 5 6 8 6 8 16 15 14 13 12 11 9 8 7 7 7 7
5 5 5 6 6 5 5 5 4 2 4 2 3 4 4 2 2 1 3 3 2 4 3 4 4 3 4 6 7 5 7 16 16 15 15 13 12 10 9 8 9 9 10
5 5 5 5 6 5 4 4 4 3 3 4 4 5 4 3 3 1 4 4 4 2 2 3 4 4 3 2 4 3 6 7 7 16 15 14 13 12 12 11 11 11 11
5 6 0 4 4 5 6 6 6 4 5 4 2 7 7 5 6 8 6 6 5 5 4 6 3 2 4 5 2 4 4 4 5 13 15 14 14 13 13 12 12 11 11
4 4 4 6 5 5 5 7 5 5 4 4 5 7 7 8 7 5 4 2 3 3 2 3 2 2 3 3 3 4 4 5 4 9 16 15 13 14 14 13 12 12 11
2 4 4 4 5 5 8 8 9 5 4 3 4 5 6 6 6 6 7 7 6 5 3 1 1 2 1 2 1 2 4 3 4 1 9 10 13 17 16 15 9 8 10
4 4 1 4 5 7 6 6 9 9 6 6 5 6 5 5 4 3 3 4 5 4 4 4 4 4 3 3 2 2 2 0 1 2 2 1 4 5 4 8 7 11 14
5 2 5 2 6 5 5 6 7 7 5 4 5 4 3 3 2 1 2 2 3 4 3 3 2 3 3 2 2 3 3 2 3 2 2 3 3 4 3 4 10 12 12
4 4 4 4 5 4 3 6 7 5 6 3 2 4 3 4 5 5 3 6 7 7 6 1 1 2 2 3 3 4 3 3 4 4 2 3 2 3 2 4 9 8 8
1 5 2 3 5 3 1 4 7 6 6 6 3 1 4 5 4 5 5 6 6 4 5 4 5 1 1 1 2 3 5 5 5 7 3 2 2 3 4 3 4 3 2
1 4 4 2 3 4 4 1 5 6 5 6 5 3 2 6 2 5 5 5 6 5 4 3 3 4 6 7 4 2 3 4 4 2 4 2 3 2 4 4 3 6 8
6 2 5 5 3 3 6 2 3 5 6 4 5 5 8 6 4 4 4 5 5 4 5 7 5 5 7 7 7 4 2 3 3 3 3 4 4 2 2 2 4 4 3
Wind_Direction
16 359 348 331 323 359 21 339 297 180 197 219 227 244 245 265 245 159 232 170 134 129 128 105 326 273 202 177 171 153 147 140 138 124 119 116 111 109 104 99 93 82 70
6 354 339 333 333 356 342 334 321 326 271 244 199 211 218 210 209 220 215 228 220 220 209 215 201 247 257 180 195 164 153 142 137 131 127 121 113 107 101 90 77 70 59
356 353 335 323 314 336 322 327 323 316 311 313 287 206 200 203 212 212 221 226 225 222 227 223 231 167 188 194 203 190 168 155 146 136 135 124 113 92 82 74 64 52 37
342 333 319 304 324 311 322 301 301 310 294 303 307 312 201 200 197 203 210 212 217 227 237 240 232 205 200 201 185 187 173 160 154 147 142 131 114 100 74 45 35 18 15
341 330 324 308 299 307 294 278 291 296 287 294 293 285 303 287 208 202 204 210 218 221 221 232 225 222 216 195 177 172 176 163 162 160 148 133 119 103 53 347 355 4 18
333 318 305 300 302 273 303 320 292 282 282 272 280 293 297 293 251 197 216 208 212 216 212 217 234 218 204 185 169 181 171 165 167 160 150 137 128 135 220 311 355 350 0
324 303 284 299 307 307 284 254 282 301 301 304 308 301 290 298 255 218 213 218 212 214 206 209 194 157 187 173 190 173 162 172 170 160 160 153 153 191 284 319 340 343 339
326 326 331 319 306 314 304 306 306 291 280 259 259 266 272 293 266 230 227 224 223 237 185 151 157 154 174 181 171 170 168 171 169 172 170 147 154 274 277 278 311 328 345
341 331 342 345 332 321 307 327 299 285 276 276 248 235 279 247 337 67 265 297 300 155 118 184 137 121 120 125 167 175 174 172 177 175 171 165 197 241 256 288 300 336 336
351 338 345 339 324 325 320 306 296 284 291 281 286 233 252 249 295 324 46 302 22 205 147 164 147 149 148 193 182 172 164 172 178 180 179 193 218 244 259 254 213 305 327
331 349 349 350 347 330 310 302 290 300 302 290 278 304 275 255 234 116 272 195 162 175 138 167 78 153 161 207 166 169 164 167 169 182 191 211 224 243 247 211 217 271 334
345 353 349 339 333 328 326 314 324 316 315 50 293 302 302 332 20 197 149 200 143 115 87 103 86 48 96 148 173 148 148 160 169 186 213 221 229 237 242 209 218 242 264
347 6 342 347 349 4 348 340 5 32 14 355 5 339 307 359 48 346 110 97 87 51 91 51 175 183 137 169 144 154 165 175 183 187 210 224 237 230 224 204 216 220 241
337 338 347 350 1 1 356 18 3 47 15 30 8 10 16 352 62 70 76 80 61 72 93 115 259 158 145 148 167 171 183 188 188 197 207 217 220 213 207 212 221 236 254
339 15 344 346 355 26 17 10 20 19 20 19 348 341 20 24 35 115 96 97 101 69 346 191 145 147 132 145 164 198 152 190 196 200 207 206 204 205 212 223 237 251 263
345 349 335 3 344 8 17 5 44 24 21 349 347 42 51 28 38 61 132 163 161 136 127 155 99 97 121 128 162 167 166 178 199 202 206 204 201 206 219 232 244 253 260
0 337 345 19 342 331 4 350 329 52 23 14 31 39 56 70 72 177 180 170 222 101 141 107 114 117 91 108 169 160 170 202 194 207 208 208 208 210 217 227 237 246 255
358 315 175 348 339 324 343 11 34 16 22 349 30 28 20 19 18 27 46 20 76 64 91 102 153 154 171 192 201 209 234 241 212 203 206 214 215 218 222 227 235 242 248
356 355 5 8 348 12 30 358 53 49 27 38 39 29 32 34 33 26 72 59 39 83 85 99 155 183 206 187 202 241 237 259 254 207 200 212 220 225 227 228 230 237 243
358 33 8 324 301 44 33 4 347 310 161 82 97 56 56 53 37 3 41 36 32 1 46 16 325 192 181 220 116 225 260 235 247 216 213 200 212 225 224 226 245 263 254
189 166 258 319 353 66 34 360 338 357 37 46 98 113 91 99 94 63 40 16 35 16 26 9 41 35 28 56 352 283 198 5 322 247 141 298 221 227 219 214 218 232 237
356 309 183 158 66 61 12 3 355 331 6 47 74 40 144 188 149 317 21 26 355 355 31 19 30 35 9 28 338 346 345 8 322 199 169 256 176 177 194 165 199 231 260
337 334 38 92 89 97 27 4 346 312 321 257 162 87 4 67 48 19 3 271 246 224 234 334 25 360 338 34 354 326 322 296 265 259 161 265 148 114 143 195 211 201 241
344 271 128 44 129 114 71 339 329 285 298 327 342 68 96 102 39 13 331 320 325 207 208 218 215 121 135 268 277 257 268 261 267 264 128 251 255 152 158 105 356 300 346
283 275 280 292 138 150 210 317 345 309 284 277 267 272 82 108 21 19 330 352 360 41 195 207 235 207 203 215 227 312 346 356 337 56 21 313 333 114 158 138 105 101 120
277 224 234 247 160 191 216 248 360 311 303 350 31 97 67 99 97 46 360 6 1 359 334 314 281 241 229 232 214 231 6 12 338 359 336 10 332 320 96 131 149 164 115